Zurück zum Katalog

FENGYUN 1C DEB

AktivPO
NORAD 29850·DEBRIS·🇨🇳 China

Gestartet May 10, 1999 von Taiyuan Satellite Launch Center

Loading…

Nächste Überflüge (nächste 24 Stunden)

TLE

AktuellSource: Space-Track

Epoche: Sep 14, 2026, 23:08 UTC

1 29850U 99025EU  26257.96425257  .00000670  00000-0  45234-3 0  9995
2 29850  98.1144 158.9607 0104937 223.2233 152.7582 14.00712163998865

Verfolge FENGYUN 1C DEB in Echtzeit mit AllMySat

Download on the App Store